Regional Weather Roundup
Issued by NWS

Home | Current Version | Previous Version | Graphics & Text | Print | Product List | Glossary Off
Versions: 1 2 3 4 5 6 7 8 9 10 11 12 13 14 15 16 17 18 19 20 21 22 23 24 25 26 27 28 29 30 31 32 33 34 35 36 37 38 39 40 41 42 43 44 45 46 47 48 49 50

000
ASUS43 KMPX 051401
RWRMN
WEATHER ROUNDUP FOR MINNESOTA
NATIONAL WEATHER SERVICE TWIN CITIES/CHANHASSEN MN
900 AM CDT SUN JUL 05 2015


NOTE: "FAIR" INDICATES FEW OR NO CLOUDS BELOW 12,000 FEET WITH NO
SIGNIFICANT WEATHER AND/OR OBSTRUCTIONS TO VISIBILITY. N/A MEANS
CURRENT SKY AND/OR WEATHER CONDITIONS ARE NOT AVAILABLE.

MNZ060>063-068>070-051500-
   Twin Cities Metro

CITY           SKY/WX    TMP DP  RH WIND       PRES   REMARKS
TWIN CITIES    CLOUDY    74  61  63 S12       29.94S
ST PAUL        PTSUNNY   73  62  68 SE9       29.94F
CRYSTAL        PTSUNNY   76  61  59 S9        29.92S
BLAINE         CLOUDY    75  63  64 S12       29.94S
LAKEVILLE      PTSUNNY   70  63  78 S6        29.95F
EDEN PRAIRIE   CLOUDY    72  62  71 S10       29.93F
SOUTH ST PAUL  PTSUNNY   72  61  67 S8        29.95F
LAKE ELMO      FAIR      70  63  78 S8        29.97S
$$
MNZ001>005-007-008-013>017-022>024-027-028-051500-
   Northwest Minnesota

CITY           SKY/WX    TMP DP  RH WIND       PRES   REMARKS
BEMIDJI        CLOUDY    68  65  90 SE12      29.79F
HALLOCK        PTSUNNY   68  66  94 N3        29.76S
ROSEAU         PTSUNNY   66  61  82 CALM      29.78F
WARROAD        MOSUNNY   68  64  88 NW5       29.80S
THIEF RVR FALL CLOUDY    70  64  83 S12       29.74F
CROOKSTON      PTSUNNY   73  66  78 S17       29.73F
FOSSTON        PTSUNNY   70  64  83 S10G17    29.75F
DETROIT LAKES  MOSUNNY   72  64  78 SE15G21   29.80F
MOORHEAD       SUNNY     73  66  78 S18       29.76F
PARK RAPIDS    CLOUDY    71  63  75 S12       29.83F
MAHNOMEN       FAIR      71  66  83 S8        29.77F
$$
MNZ006-009>011-018-025>026-051500-
   North Central Minnesota

CITY           SKY/WX    TMP DP  RH WIND       PRES   REMARKS
BAUDETTE       MOSUNNY   72  65  78 CALM      29.77F
INTL FALLS     PTSUNNY   70  66  87 VRB5      29.82R FOG
WASKISH        FAIR      70  66  88 S6        29.78F
BIG FORK       CLOUDY    72  66  83 S9        29.82F
LONGVILLE      PTSUNNY   72  64  78 S8        29.84F
GRAND RAPIDS   CLOUDY    68  63  83 S10       29.88S
CRANE LAKE     CLOUDY    68  64  88 S7        29.86R
ORR            CLOUDY    70  63  78 S7        29.82F
COOK           CLOUDY    70  63  78 S5        29.86F
WALKER         FAIR      68  63  83 SE5       29.83F
$$
MNZ012-019>021-037-051500-
   Northeast Minnesota

CITY           SKY/WX    TMP DP  RH WIND       PRES   REMARKS
DULUTH         MOSUNNY   69  60  73 SW15      29.92S
ELY            PTSUNNY   72  63  73 SW9G16    29.89R
HIBBING        CLOUDY    69  62  78 S6        29.88F
DULUTH HARBOR  MOSUNNY   63  57  82 CALM      29.92S
TWO HARBORS    MOSUNNY   68  63  83 SW7       29.91S
SILVER BAY     PTSUNNY   70  63  78 S7        29.89F
GRAND MARAIS     N/A     52  48  86 SW3       29.91S
G MARAIS ARPRT PTSUNNY   64  57  77 S7        29.94R HAZE
$$
MNZ029>031-032-039>041-046>048-054>057-064-051500-
   West Central Minnesota

CITY           SKY/WX    TMP DP  RH WIND       PRES   REMARKS
FERGUS FALLS   MOSUNNY   72  64  78 S17       29.80R
WHEATON        SUNNY     72  64  78 SE14      29.80F
MORRIS         MOSUNNY   73  64  73 SE12      29.80F
ALEXANDRIA     CLOUDY    70  63  78 S9        29.85F
ELBOW LAKE     FAIR      71  64  80 S16       29.82F
WADENA         MOSUNNY   70  63  78 SE7       29.83F
GLENWOOD       CLOUDY    72  63  73 S10       29.86F
APPLETON       PTSUNNY   75  64  69 SE8       29.80F
BENSON         PTSUNNY   72  63  73 S6        29.83F
ORTONVILLE     MOSUNNY   75  64  69 S5        29.79F
MADISON        MOSUNNY   75  64  69 E7        29.80F
WILLMAR        FAIR      72  64  78 S12G17    29.87F
$$
MNZ033>034-036-042>043-049>051-058-059-051500-
   Central Minnesota

CITY           SKY/WX    TMP DP  RH WIND       PRES   REMARKS
ST CLOUD       CLOUDY    70  62  76 SE8       29.89F
SAUK CENTRE    FAIR      69  63  82 S9        29.86F
PAYNESVILLE    PTSUNNY   68  62  78 SE12      29.87F
AITKIN         PTSUNNY   73  63  68 S10       29.86F
PINE RIVER       N/A     70  63  78 S7        29.88F
BRAINERD       PTSUNNY   71  62  73 S9        29.87F
STAPLES        MOSUNNY   70  61  73 SE9       29.85F
LONG PRAIRIE   FAIR      68  63  83 SE9G16    29.86F
LITTLE FALLS   PTSUNNY   70  61  73 SE9       29.88F
LITCHFIELD     PTSUNNY   73  66  78 S3        29.89F
BUFFALO        CLOUDY    69  60  73 S8        29.93F
MAPLE LAKE     CLOUDY    70  64  80 S6        29.92F
$$
MNZ037-044-045-052-053-051500-
   East Central Minnesota

CITY           SKY/WX    TMP DP  RH WIND       PRES   REMARKS
PRINCETON      CLOUDY    72  63  73 S8        29.91F
MORA           CLOUDY    68  59  73 S10       29.93F
CAMBRIDGE      CLOUDY    73  61  64 S10       29.91F
RUSH CITY      PTSUNNY   70  62  76 S8        29.94S
MOOSE LAKE     PTSUNNY   70  61  73 S7        29.90F
HINCKLEY       FAIR      70  63  78 S9        29.92F
CLOQUET        MOSUNNY   68  61  77 S9G16     29.91F
MCGREGOR       CLOUDY    70  63  78 S8        29.89F
$$
MNZ071>073-080-081-089-090-097-098-051500-
   Southwest Minnesota

CITY           SKY/WX    TMP DP  RH WIND       PRES   REMARKS
MONTEVIDEO     CLOUDY    72  64  78 S9        29.83F
GRANITE FALLS  CLOUDY    70  64  79 SE5       29.86F
CANBY          MOSUNNY   79  60  51 SW9G16    29.79S
MARSHALL       PTSUNNY   72  61  68 E10       29.80F
REDWOOD FALLS  CLOUDY    72  62  71 S18       29.86F
OLIVIA         CLOUDY    70  61  73 S12G17    29.87S
PIPESTONE      LGT RAIN  66  64  94 S16G24    29.83F
WINDOM         CLOUDY    70  61  73 S14       29.92F
WORTHINGTON    CLOUDY    64  61  88 S7        29.95F
JACKSON        CLOUDY    68  63  83 S12       29.96S
TRACY          CLOUDY    70  64  81 S16G24    29.83F
SLAYTON        CLOUDY    65  64  95 S17       29.87F FOG
$$
MNZ065>067-074>077-082>085-091>093-051500-
   South Central Minnesota

CITY           SKY/WX    TMP DP  RH WIND       PRES   REMARKS
MANKATO        PTSUNNY   70  61  73 S10       29.95R
NEW ULM        CLOUDY    70  64  83 S12       29.91S
ST JAMES       CLOUDY    72  64  78 S12G18    29.93F
FAIRMONT       CLOUDY    70  61  73 S10       29.96S
GLENCOE        CLOUDY    71  64  79 S6        29.91F
FARIBAULT      PTSUNNY   72  63  73 S8        29.96F
OWATONNA       PTSUNNY   70  61  73 S7        29.97F
WASECA         PTSUNNY   72  63  73 S9        29.97S
ALBERT LEA     PTSUNNY   70  63  78 S7        29.99S
$$
MNZ078>079-086>088-094>096-051500-
   Southeast Minnesota

CITY           SKY/WX    TMP DP  RH WIND       PRES   REMARKS
ROCHESTER      MOSUNNY   69  62  78 S14       30.01S
RED WING       MOSUNNY   73  61  64 SW6       29.97R
DODGE CENTER   PTSUNNY   70  63  78 S9        30.00S
WINONA         SUNNY     73  63  68 SW6       30.00S
AUSTIN         PTSUNNY   72  63  73 S9        30.00S
PRESTON        SUNNY     69  61  75 S9        30.03S
$$
ABBREVIATIONS USED IN REMARKS
   TC - TEMPERATURES IN CELSIUS
  WCI - WIND CHILL INDEX
   HX - HEAT INDEX
  VSB - VISIBILITY
$$



USA.gov is the U.S. government's official web portal to all federal, state and local government web resources and services.